This is the latest recevied weather packets stored in our database for station/object IA5KRO-13. If no packets are shown the sender has not sent any weather packets the latest 1 day(s).
| Time | Temp. | Humidity | Pressure | Rain* | Wind** | Luminosity | Snow |
|---|---|---|---|---|---|---|---|
| 1778026213 | 17.22° C | 94% | 1019 hPa | 0 mm | 0.45 m/s, 184° | - | - |
| 1778025910 | 17.22° C | 94% | 1019 hPa | 0 mm | 0.89 m/s, 120° | - | - |
| 1778025637 | 17.22° C | 94% | 1019 hPa | 0 mm | 0.45 m/s, 302° | - | - |
| 1778024713 | 17.22° C | 93% | 1018.3 hPa | 0 mm | 1.79 m/s, 315° | - | - |
| 1778024414 | 17.22° C | 93% | 1018.3 hPa | 0 mm | 2.68 m/s, 277° | - | - |
| 1778024109 | 17.22° C | 93% | 1018.3 hPa | 0 mm | 1.79 m/s, 263° | - | - |
| 1778023822 | 17.22° C | 93% | 1018.3 hPa | 0 mm | 0.89 m/s, 108° | - | - |
| 1778023509 | 17.22° C | 93% | 1019 hPa | 0 mm | 0.45 m/s, 346° | - | - |
| 1778023213 | 17.22° C | 92% | 1019 hPa | 0 mm | 0.45 m/s, 188° | - | - |
| 1778022913 | 17.22° C | 91% | 1019 hPa | 0 mm | 2.68 m/s, 282° | - | - |
| 1778022613 | 17.22° C | 92% | 1018.3 hPa | 0 mm | 5.36 m/s, 294° | - | - |
| 1778022035 | 17.22° C | 92% | 1018.3 hPa | 0 mm | 2.68 m/s, 249° | - | - |
| 1778021709 | 17.22° C | 93% | 1018.3 hPa | 0 mm | 2.24 m/s, 78° | - | - |
| 1778021412 | 17.22° C | 94% | 1018.3 hPa | 0 mm | 1.79 m/s, 94° | - | - |
| 1778021112 | 17.22° C | 94% | 1019 hPa | 0 mm | 1.34 m/s, 169° | - | - |
| 1778020813 | 17.22° C | 93% | 1019 hPa | 0 mm | 1.79 m/s, 270° | - | - |
| 1778020509 | 17.22° C | 93% | 1019 hPa | 0.25 mm | 1.79 m/s, 288° | - | - |
| 1778020222 | 17.22° C | 93% | 1019 hPa | 0.25 mm | 2.68 m/s, 307° | - | - |
| 1778019909 | 17.22° C | 93% | 1019 hPa | 0 mm | 3.13 m/s, 279° | - | - |
| 1778019613 | 17.22° C | 94% | 1019.3 hPa | 0 mm | 0.89 m/s, 223° | - | - |
| 1778019313 | 17.22° C | 94% | 1019.3 hPa | 0 mm | 3.13 m/s, 174° | - | - |
| 1778019013 | 17.22° C | 95% | 1019.3 hPa | 0 mm | 1.34 m/s, 66° | - | - |
| 1778018709 | 17.22° C | 94% | 1019.3 hPa | 0 mm | 5.36 m/s, 309° | - | - |
| 1778018109 | 17.22° C | 94% | 1019.3 hPa | 0.25 mm | 4.02 m/s, 292° | - | - |
| 1778017814 | 17.22° C | 94% | 1019.3 hPa | 0.25 mm | 1.79 m/s, 257° | - | - |
* Rain latest hour (hover to see other rain measurements)
** Current wind speed in m/s (hover to see current wind gust speed)